GSAT0218 (GALILEO 22)

Last updated on Thu Jul 03 2025 00:02:33 GMT+0000 (Coordinated Universal Time)

1 43058U 17079D 25182.97140128 .00000031 00000+0 00000+0 0 9996 2 43058 55.1855 231.1383 0005220 266.7882 93.2277 1.70474649 47047
UTC large
Height (km)
Speed (km/s)
/
Latitude / Longitude
Inclination (degrees)
Orbital Period (minutes)
Azimuth
Elevation
Range (km)
Doppler Factor

Next 0 passes for location: London (51.5072 / 0.1276)

Sorry there are no passes over London.